AO-07 1 07530U 74089B 17264.57054094 -.00000042 00000-0 16872-4 0 9992 2 07530 101.6432 231.3962 0012223 133.6707 339.8097 12.53628783960703 UO-11 1 14781U 84021B 17264.59106241 .00000098 00000-0 18296-4 0 9991 2 14781 097.6877 306.7034 0007222 238.5173 121.5336 14.82932259783635 LO-19 1 20442U 90005G 17264.78904696 .00000012 00000-0 20635-4 0 9998 2 20442 98.5799 200.3424 0010940 218.5079 141.5326 14.32870503445459 HUBBLE 1 20580U 90037B 17264.58639479 .00000554 00000-0 23126-4 0 9997 2 20580 028.4696 090.4975 0002846 127.2797 295.5993 15.08855282304778 MET-2/21 1 22782U 93055A 17264.63142148 -.00000003 00000-0 -16505-4 0 9998 2 22782 082.5478 307.0512 0022929 157.5404 313.5616 13.83801946214763 AO-27 1 22825U 93061C 17264.54086724 -.00000002 00000-0 17084-4 0 9991 2 22825 098.8236 231.3602 0009343 054.4653 305.7398 14.30006690250900 IO-26 1 22826U 93061D 17264.47981932 -.00000008 00000-0 14470-4 0 9991 2 22826 098.8179 231.3689 0009770 045.4392 314.7586 14.30336172251097 FO-29 1 24278U 96046B 17264.58913772 -.00000012 00000-0 21159-4 0 9996 2 24278 098.5472 134.9530 0351384 087.5771 276.5543 13.53078759041661 NOAA-15 1 25338U 98030A 17264.56566259 .00000022 00000-0 27979-4 0 9997 2 25338 098.7817 275.6665 0009502 289.1276 070.8874 14.25817084006483 GO-32 1 25397U 98043D 17264.83404275 -.00000011 00000-0 14281-4 0 9996 2 25397 98.6163 205.1629 0002434 82.8455 277.3000 14.23628897997544 ISS 1 25544U 98067A 17264.88489307 .00001658 00000-0 32179-4 0 9993 2 25544 51.6416 276.2740 0003757 307.0051 117.7166 15.54226845 76791 NO-44 1 26931U 01043C 17264.31488001 -.00000025 00000-0 22073-4 0 9990 2 26931 067.0511 203.1698 0006345 257.1913 102.8480 14.30474275834025 SO-50 1 27607U 02058C 17264.25684469 .00000037 00000-0 25835-4 0 9998 2 27607 064.5556 191.9830 0033387 048.7336 311.6633 14.75363740793159 CO-55 1 27844U 03031E 17264.61014539 .00000062 00000-0 47804-4 0 9996 2 27844 098.6906 272.2168 0010877 070.9402 289.2953 14.22060741737987 CO-57 1 27848U 03031J 17264.56573991 .00000039 00000-0 37702-4 0 9996 2 27848 098.6998 272.4721 0010825 079.7231 280.5167 14.21672431737861 RS-22 1 27939U 03042A 17264.86427635 .00000117 00000-0 29473-4 0 9998 2 27939 97.9535 46.5671 0011626 280.5211 199.9261 14.66601505747485 NOAA-18 1 28654U 05018A 17264.61396429 -.00000006 00000-0 22199-4 0 9993 2 28654 099.1776 289.1616 0014755 157.9427 202.2381 14.12349668635776 CO-58 1 28895U 05043F 17264.37602822 .00000154 00000-0 38333-4 0 9998 2 28895 097.8763 062.2984 0016508 194.9629 165.1088 14.63439003634325 Falconsat-3 1 30776U 07006E 17264.18886849 .00002787 00000-0 87317-4 0 9992 2 30776 035.4360 177.3528 0001861 122.2426 237.8480 15.32847425582990 CO-65 1 32785U 08021C 17264.47687621 .00000234 00000-0 31144-4 0 9993 2 32785 097.5625 284.3325 0012466 203.1937 156.8719 14.87953702509144 AAUSAT2 1 32788U 08021F 17264.61699386 .00000390 00000-0 41682-4 0 9994 2 32788 097.5516 296.9344 0012480 161.3134 198.8547 14.93999644509974 DO-64 1 32789U 08021G 17264.62948663 .00001906 00000-0 13757-3 0 9996 2 32789 97.5507 320.7972 0014074 130.1380 230.1082 15.05207391511372 CO-66 1 32791U 08021J 17264.25963967 .00000309 00000-0 37217-4 0 9996 2 32791 097.5581 288.7824 0013239 187.0209 173.0826 14.90314151509373 RS-30 1 32953U 08025A 17264.78452229 .00000020 00000-0 74034-4 0 9990 2 32953 82.5064 179.5944 0020238 74.0310 286.2998 12.43079159423428 PRISM 1 33493U 09002B 17264.89778236 .00000864 00000-0 82954-4 0 9993 2 33493 98.1541 151.3478 0016394 120.1006 240.1854 14.95816556470234 NOAA-19 1 33591U 09005A 17264.55503319 .00000101 00000-0 80247-4 0 9993 2 33591 099.1038 232.8008 0014178 005.7959 354.3373 14.12212823444266 TISAT-1 1 36799U 10035E 17264.28184238 .00000506 00000-0 57900-4 0 9995 2 36799 098.0734 029.0224 0012655 017.9256 342.2405 14.90503741389896 JUGNU 1 37839U 11058B 17264.30049704 .00000320 00000-0 28740-4 0 9992 2 37839 019.9604 227.6980 0019054 162.1654 346.8231 14.12593759307192 SRMSAT 1 37841U 11058D 17264.43044597 .00000333 00000-0 38036-4 0 9997 2 37841 019.9717 270.5756 0012023 058.9365 092.7002 14.10584178306799 AO-71 1 37854U 11061E 17264.76584095 .00000842 00000-0 52699-4 0 9999 2 37854 101.6929 187.4910 0166691 148.9496 212.1698 15.04396267321454 HRBE 1 37855U 11061F 17264.50939499 .00001124 00000-0 66342-4 0 9998 2 37855 101.7061 184.8480 0179801 156.8263 204.1185 15.03366846320790 ALMASAT-1 1 38078U 12006B 17264.45581986 .00019514 36855-5 21435-3 0 9991 2 38078 069.4344 232.5922 0292388 149.3282 212.5359 15.26259768299451 HORYU-2 1 38340U 12025D 17264.59573111 .00000240 00000-0 43548-4 0 9994 2 38340 098.3785 271.9252 0011430 352.1977 007.9051 14.75398823277098 RS-40 1 38735U 12041C 17264.83080609 .00000013 00000-0 19000-4 0 9996 2 38735 82.4715 263.9198 0016845 173.8273 186.3017 12.42575030233708 BEESAT-3 1 39134U 13015E 17264.20925121 .00001660 00000-0 89251-4 0 9994 2 39134 064.8638 276.4400 0039186 248.7299 110.9641 15.18154039243679 BEESAT-2 1 39136U 13015G 17264.47385632 .00001335 00000-0 79870-4 0 9997 2 39136 064.8691 287.6453 0034272 268.5845 091.1354 15.15362372243477 ZACUBE-1 1 39417U 13066B 17264.59033607 .00000239 00000-0 36862-4 0 9996 2 39417 097.6209 302.1136 0058140 315.6551 044.0013 14.80770753207046 TRITON-1 1 39427U 13066M 17264.60437221 .00000253 00000-0 48388-4 0 9991 2 39427 097.6374 273.4987 0115266 040.5131 320.4584 14.67513260204993 GOMX-1 1 39430U 13066Q 17264.53622908 .00000229 00000-0 50055-4 0 9992 2 39430 097.6711 256.2573 0153326 098.6711 263.1892 14.58919783203791 LO-74 1 39440U 13066AA 17264.61155991 .00000256 00000-0 42926-4 0 9993 2 39440 097.6228 290.5649 0080334 348.6231 011.3161 14.75511657205110 AO-73 1 39444U 13066AE 17264.58950597 .00000289 00000-0 42501-4 0 9993 2 39444 097.6224 303.2908 0057230 311.9880 047.6467 14.81516439205292 SPROUT 1 39770U 14029E 17264.56922219 .00000895 00000-0 10752-3 0 9998 2 39770 097.8749 003.0165 0009576 021.9513 338.2111 14.86399226180452 DUCHIFAT-1 1 40021U 14033M 17264.73787938 .00000456 00000-0 53170-4 0 9995 2 40021 97.9130 178.0212 0012927 350.1949 9.9014 14.89998645176977 NANOSATCBR1 1 40024U 14033Q 17264.24655175 .00000477 00000-0 56218-4 0 9990 2 40024 097.9084 176.2628 0012277 353.4022 006.7031 14.89308208176328 EO-79 1 40025U 14033R 17264.74836245 .00000361 00000-0 44845-4 0 9990 2 40025 97.9062 175.6600 0012499 355.0333 5.0757 14.88497378176858 DTUSAT-2 1 40030U 14033W 17264.17293594 .00000357 00000-0 44884-4 0 9995 2 40030 97.9023 174.0990 0011859 351.7083 8.3935 14.88115920176720 EO-80 1 40032U 14033Y 17264.21934626 .00000348 00000-0 43913-4 0 9992 2 40032 097.9030 174.1506 0011799 352.1004 008.0025 14.88051514176203 ANTELSAT 1 40034U 14033AA 17264.62896196 .00000270 00000-0 47996-4 0 9997 2 40034 097.8445 145.5020 0058804 344.1449 015.7917 14.73756321174596 VELOX-1 1 40057U 14034E 17264.89308739 .00000473 00000-0 74304-4 0 9991 2 40057 98.1927 6.5911 0012519 106.8334 253.4221 14.77203140174032 DAURIA DX 1 1 40071U 14037C 17264.87891198 .00000216 00000-0 35291-4 0 9991 2 40071 98.3461 19.8354 0009855 100.5793 259.6534 14.81055836173283 UKUBE-1 1 40074U 14037F 17264.87751145 .00000523 00000-0 70596-4 0 9999 2 40074 98.3564 24.1953 0006042 97.8976 262.2909 14.83581292173514 HODOYOSHI-1 1 40299U 14070B 17264.87622825 .00001171 00000-0 53509-4 0 9992 2 40299 97.3994 346.1366 0014805 109.5139 315.2652 15.22439140159653 CHUBUSAT-1 1 40300U 14070C 17264.86881750 .00001322 00000-0 62272-4 0 9993 2 40300 97.3908 342.9770 0021896 120.0955 332.2812 15.21057202159488 QSAT-EOS 1 40301U 14070D 17264.83172126 .00002875 00000-0 12165-3 0 9990 2 40301 97.3843 343.2657 0028990 116.3109 23.3484 15.23620539159547 FIREBIRD FU3 1 40377U 15003B 17264.53473548 .00002045 00000-0 89194-4 0 9995 2 40377 099.1185 107.7363 0135661 043.3634 317.8172 15.15881135145599 FIREBIRD FU4 1 40378U 15003C 17264.78974723 .00002141 00000-0 93046-4 0 9992 2 40378 99.1188 108.0863 0135848 42.4286 318.7348 15.15898615145644 GRIFEX 1 40379U 15003D 17264.80087980 .00001436 00000-0 67710-4 0 9991 2 40379 99.1217 105.4698 0142045 51.1252 310.2546 15.13339087145493 NO-84 1 40654U 15025D 17263.30241738 .00010384 00000-0 18565-3 0 00871 2 40654 054.9932 171.0766 0178363 144.4676 216.8375 15.35079401014317 NO-83 1 40655U 15025E 17263.22023438 .00021329 00000-0 29567-3 0 00963 2 40655 054.9801 140.3877 0142488 161.7891 198.8207 15.46028536014368 DEORBITSAIL 1 40719U 15032E 17264.51498918 .00000435 00000-0 70210-4 0 9993 2 40719 097.9680 157.0123 0015886 188.8515 171.2417 14.76154359118531 NUDT-PHONESAT 1 40900U 15049B 17264.83762067 .00002436 00000-0 11644-3 0 9995 2 40900 97.4438 271.4200 0012164 244.7310 115.2665 15.19913555111138 XW-2A 1 40903U 15049E 17264.80919884 .00002120 00000-0 56591-4 0 9997 2 40903 97.4152 291.6962 0012867 278.8279 81.1509 15.39217389112509 XW-2C 1 40906U 15049H 17264.82882218 .00000790 00000-0 46144-4 0 9996 2 40906 97.4572 268.4066 0013726 236.5427 123.4494 15.14714725110865 XW-2D 1 40907U 15049J 17264.80531835 .00000852 00000-0 49295-4 0 9990 2 40907 97.4543 268.1233 0013124 234.2798 125.7214 15.14830374110869 LILACSAT-2 1 40908U 15049K 17264.90145358 .00000451 00000-0 28989-4 0 9995 2 40908 97.4647 267.8984 0014760 233.3296 126.6579 15.13226528110799 XW-2F 1 40910U 15049M 17264.81536729 .00001251 00000-0 68896-4 0 9994 2 40910 97.4560 268.9737 0013931 231.3184 128.6803 15.15794610110782 XW-2B 1 40911U 15049N 17264.81392352 .00000824 00000-0 47881-4 0 9993 2 40911 97.4584 268.5557 0013023 234.7158 125.2857 15.14787858110760 DCBB 1 40912U 15049P 17264.87663492 .00001995 00000-0 10147-3 0 9990 2 40912 97.4519 271.1484 0014149 221.5155 257.7283 15.17929589110956 TW-1C 1 40926U 15051B 17264.86930650 .00009262 00000-0 20291-3 0 9996 2 40926 97.2205 303.7221 0011937 167.7583 282.3032 15.44246517111837 TW-1A 1 40928U 15051D 17264.87581281 .00004118 00000-0 11642-3 0 9996 2 40928 97.2186 298.9485 0011427 202.9106 282.9578 15.36831550111548 IO-86 1 40931U 15052B 17264.70097775 .00000724 00000-0 11913-4 0 9994 2 40931 5.9971 264.5367 0012596 171.9806 188.0583 14.76543284107250 GomX-3 1 40949U 98067HA 16292.18357804 .08527750 12374-4 77882-3 0 9992 2 40949 51.6055 106.7696 0006699 286.1344 73.8944 16.38002265 59645 LQSat 1 40958U 15057A 17264.84561590 .00000040 00000-0 13971-4 0 9991 2 40958 97.9711 338.4424 0019537 114.3313 245.9928 14.72986167105344 AO-85 1 40967U 15058D 17263.19649613 .00000297 00000-0 52980-4 0 00956 2 40967 064.7762 290.6711 0177485 043.1039 318.3805 14.75495999013811 ATHENOXAT-1 1 41168U 15077C 17264.41630183 .00002852 00000-0 12312-3 0 9995 2 41168 014.9872 186.3088 0012041 270.1365 237.2447 15.11896665097620 ChubuSat-2 1 41338U 16012B 17264.25781077 .00000445 00000-0 28196-4 0 9999 2 41338 031.0028 222.0848 0013973 290.1210 069.7922 14.99806874087421 ChubuSat-3 1 41339U 16012C 17264.23955333 .00000541 00000-0 35622-4 0 9995 2 41339 31.0102 221.1940 0013862 296.2140 63.7063 15.00007988 87404 Horyu-4 1 41340U 16012D 17264.23691727 .00000678 00000-0 45485-4 0 9990 2 41340 31.0046 218.0384 0014193 305.9089 54.0229 15.00701089 87453 OUFTI-1 1 41458U 16025C 17264.62282302 .00001210 00000-0 68700-4 0 9990 2 41458 098.1777 307.7056 0172107 327.7666 031.3092 15.03601057077073 e-st@r-II 1 41459U 16025D 17264.58812843 .00002225 00000-0 12268-3 0 9999 2 41459 098.1773 307.5978 0172466 328.2530 030.8379 15.03419284077054 AAUSAT4 1 41460U 16025E 17264.85748674 .00003156 00000-0 17154-3 0 9994 2 41460 98.1700 308.0487 0164579 325.1468 33.8971 15.04460475 77127 NODES 1 1 41477U 98067HX 17262.38431888 .17021661 12538-4 46079-3 0 9990 2 41477 51.6074 225.8859 0003017 249.6794 110.5489 16.45625800 77086 NODES 2 1 41478U 98067HY 17264.86603973 .02704921 12034-4 74365-3 0 9993 2 41478 51.6139 214.0414 0003278 213.0036 147.0781 16.27230414 77464 LO-87 1 41557U 16033B 17264.85512402 .00001703 00000-0 66135-4 0 9998 2 41557 97.4580 344.3619 0014870 32.2640 327.9505 15.27399110 73182 NuSat2 1 41558U 16033C 17264.76745425 .00001803 00000-0 70233-4 0 9997 2 41558 97.4608 344.3390 0014293 31.5198 328.6894 15.27219223 73162 Lapan A3 1 41603U 16040E 17264.85639537 .00000186 00000-0 12009-4 0 9992 2 41603 97.4514 325.6370 0015546 96.3830 357.3948 15.19412195 69330 Swayam 1 41607U 16040J 17264.64502944 .00001973 00000-0 91376-4 0 9993 2 41607 97.4512 325.9440 0015896 99.1577 261.1458 15.21177521 69264 Pratham 1 41783U 16059A 17264.60556813 .00000086 00000-0 26113-4 0 9999 2 41783 098.1575 324.9336 0032899 216.6773 143.2176 14.62860268052692 AlSat 1N 1 41789U 16059G 17264.85595803 .00000132 00000-0 34352-4 0 9990 2 41789 98.1579 325.8713 0027641 208.5870 151.3807 14.64077338 52756 ScatSat 1 41790U 16059H 17264.76221694 .00000026 00000-0 17968-4 0 9992 2 41790 98.3006 311.8380 0017924 190.9125 169.1683 14.50855402 52266 TY-1 1 41844U 16066D 17264.90901595 .00001799 00000-0 80942-4 0 9991 2 41844 97.4061 270.6198 0013928 259.5257 162.7101 15.22330482 48056 CAS-2T 1 41845U 16066E 17264.50187186 .00000201 00000-0 41840-4 0 9991 2 41845 98.7738 282.4216 0365922 322.5763 35.0444 14.37800911 45335 Pegasus-1 1 41846U 16066F 17264.60385862 .00000367 00000-0 67384-4 0 9998 2 41846 98.7781 282.2407 0368397 323.8515 33.8267 14.37120088 45320 STARS-C 1 41895U 98067KR 17264.18118992 .00036849 00000-0 33216-3 0 9994 2 41895 51.6348 267.9401 0004321 359.4263 0.6728 15.67792208 43015 Tancredo 1 1 41931U 98067KT 17264.39197573 .00165233 00000-0 68775-3 0 9998 2 41931 051.6289 257.2357 0003354 031.3378 328.7825 15.84702490038749 TO-89 1 41932U 98067KU 17264.39835968 .00015512 00000-0 17826-3 0 9991 2 41932 051.6388 270.9457 0003600 283.9170 076.1424 15.62227504038565 AOBA-V3LOX3 1 41935U 98067KX 17264.42504876 .00017887 00000-0 19935-3 0 9999 2 41935 051.6382 270.3668 0003136 295.7503 064.3168 15.62897967038677 OSNSAT 1 41939U 98067KZ 17264.40215590 .00044029 00000-0 34464-3 0 9995 2 41939 051.6338 264.1495 0003030 319.6365 040.4407 15.71138622038011 EO-88 1 42017U 17008BX 17264.61333149 .00001870 00000-0 81682-4 0 9995 2 42017 97.4858 325.8533 0005245 233.9432 126.1319 15.23370011 33167 HAVELSAT 1 42700U 98067LH 17264.67407564 .00014626 00000-0 19289-3 0 9993 2 42700 51.6385 275.0115 0006345 338.9408 21.1323 15.58640099 19972 SOMP2 1 42701U 98067LJ 17264.62270013 .00014683 00000-0 19597-3 0 9991 2 42701 51.6381 275.4223 0006200 338.6373 21.4359 15.58317277 19950 Columbia 1 42702U 98067LK 17264.42957145 .00037223 00000-0 41366-3 0 9992 2 42702 051.6371 274.8768 0006430 346.9164 013.1663 15.62500725019876 PHOENIX 1 42706U 98067LP 17264.42485961 .00012775 00000-0 17051-3 0 9997 2 42706 051.6379 276.3527 0001650 354.5111 005.5863 15.58466675019848 X-CubeSat 1 42707U 98067LQ 17264.42453160 .00014601 00000-0 19335-3 0 9991 2 42707 051.6372 276.3453 0001784 356.3371 003.7608 15.58545387019830 qbee 1 42708U 98067LR 17264.62048119 .00016059 00000-0 21257-3 0 9993 2 42708 51.6373 275.4042 0001759 355.2603 4.8373 15.58470215 19821 ZA-AeroSat 1 42713U 98067LU 17264.45765905 .00011240 00000-0 15485-3 0 9992 2 42713 051.6382 276.5683 0001098 285.4972 074.5899 15.57757825019505 LINK 1 42714U 98067LV 17264.43134729 .00018379 00000-0 23780-3 0 9992 2 42714 051.6375 276.3885 0001274 322.8811 037.2093 15.58966866019616 UPSat 1 42716U 98067LX 17264.41611177 .00016904 00000-0 21928-3 0 9993 2 42716 051.6384 276.2908 0004964 346.5178 013.5681 15.58957401019638 SpaceCube 1 42717U 98067LY 17264.43871284 .00014872 00000-0 19845-3 0 9990 2 42717 051.6382 276.4407 0004800 344.5915 015.4930 15.58316849018877 Hoopoe 1 42718U 98067LZ 17264.61968804 .00016701 00000-0 21920-3 0 9996 2 42718 051.6377 275.4007 0004799 345.5345 014.5509 15.58656984018905 Challenger 1 42721U 98067MA 17264.42286426 .00020505 00000-0 25970-3 0 9998 2 42721 051.6370 276.3303 0006972 321.8336 038.2163 15.59432023018572 NJUST-1 1 42722U 98067MB 17264.67425462 .00012287 00000-0 17005-3 0 9999 2 42722 51.6381 275.7614 0007019 318.0808 41.9646 15.57518037 18607 UNSW-EC0 1 42723U 98067MC 17264.58396294 .00019037 00000-0 25100-3 0 9995 2 42723 051.6384 275.9111 0006826 320.0456 040.0033 15.58417533018578 DUTHsat 1 42724U 98067MD 17264.43365082 .00020486 00000-0 26170-3 0 9999 2 42724 051.6383 276.4066 0006279 326.9085 033.1515 15.59209838018495 LO-90 1 42725U 98067ME 17264.41716238 .00013512 00000-0 18491-3 0 9990 2 42725 051.6383 277.0470 0006128 322.8956 037.1612 15.57725746018487 nSIGHT1 1 42726U 98067MF 17264.45325965 .00007495 00000-0 11048-3 0 9992 2 42726 051.6390 277.2896 0006212 320.6204 039.4335 15.56492973018474 QBITO 1 42728U 98067MH 17264.59085519 .00017149 00000-0 22919-3 0 9993 2 42728 51.6394 275.9617 0003859 341.2323 18.8527 15.58153523 18304 Aalto-2 1 42729U 98067MJ 17264.39831140 .00014729 00000-0 19798-3 0 9993 2 42729 051.6386 276.9216 0003851 340.5810 019.5035 15.58133764018281 SUSat 1 42730U 98067MK 17264.40398573 .00013855 00000-0 18783-3 0 9997 2 42730 051.6382 276.9577 0003829 337.4596 022.6228 15.57963208018282 i-INSPIRE II 1 42731U 98067ML 17264.51476438 .00017288 00000-0 22695-3 0 9998 2 42731 051.6370 276.1897 0005379 266.4341 093.6037 15.58619793018349 PolyITAN-2-SAU 1 42732U 98067MM 17264.45901562 .00015264 00000-0 20412-3 0 9990 2 42732 051.6375 276.5665 0005638 263.7643 096.2708 15.58231391018332 SNUSAT-1 1 42733U 98067MN 17264.66079801 .00015564 00000-0 20966-3 0 9993 2 42733 51.6377 275.6654 0005636 266.3562 93.6786 15.58017613 18369 ExAlta-1 1 42734U 98067MP 17264.45148104 .00016405 00000-0 21639-3 0 9997 2 42734 51.6372 276.5186 0007569 291.8241 68.1946 15.58522253 18286 Aoxiang-1 1 42735U 98067MQ 17264.86355012 .00012413 00000-0 17119-3 0 9994 2 42735 51.6378 274.7746 0007555 314.7535 45.2842 15.57597484 19763 BeEagleSat 1 42736U 98067MR 17264.85990224 .00013817 00000-0 18850-3 0 9996 2 42736 51.6378 274.7504 0007410 314.6102 45.4285 15.57777461 18458 Atlantis 1 42737U 98067MS 17264.43659961 .00033540 00000-0 39113-3 0 9991 2 42737 051.6362 275.6657 0007012 322.3088 037.7414 15.61301279018293 CAS-4B 1 42759U 17034B 17264.89626462 .00000449 00000-0 41512-4 0 9999 2 42759 43.0185 115.8496 0008394 239.3655 249.3786 15.09005082 14915 CAS-4A 1 42761U 17034D 17264.89087568 .00000451 00000-0 41579-4 0 9996 2 42761 43.0193 115.8168 0008653 240.0942 245.6297 15.09079593 14902 UCLSat 1 42765U 17036A 17264.61132867 .00001460 00000-0 69016-4 0 9992 2 42765 97.4405 323.3045 0010602 301.3956 58.6242 15.20962972 13870 NIUSat 1 42766U 17036B 17264.42307480 .00001236 00000-0 61076-4 0 9996 2 42766 097.4408 322.9488 0014649 285.0111 074.9502 15.19666004013703 LituanicaSAT 2 1 42768U 17036D 17264.61054989 .00002379 00000-0 11350-3 0 9990 2 42768 097.4407 323.1542 0014648 287.3347 072.6286 15.19973225013747 InflateSail 1 42770U 17036F 17245.93730135 .99999999 00000-0 73960-1 0 9995 2 42770 097.4262 306.2162 0014869 278.7167 080.9844 16.07641391010932 Aalto 1 1 42775U 17036L 17264.32816209 .00001049 00000-0 51630-4 0 9996 2 42775 097.4406 322.9210 0012843 286.7792 073.2034 15.20134993013645 URSA MAIOR 1 42776U 17036M 17264.65499742 .00001114 00000-0 54562-4 0 9992 2 42776 97.4408 323.2516 0012690 285.8052 74.1783 15.20178702 13692 Max Valier Sat 1 42778U 17036P 17264.63214326 .00001279 00000-0 61494-4 0 9999 2 42778 97.4424 323.3001 0011247 292.3063 67.6979 15.20583699 13682 Pegasus 1 42784U 17036V 17264.35609958 .00001451 00000-0 68865-4 0 9995 2 42784 097.4408 323.0369 0011150 302.0257 057.9894 15.20819085013647 NUDATSat 1 42787U 17036Y 17264.80846300 .00002001 00000-0 93207-4 0 9992 2 42787 97.4406 323.5024 0010711 300.4191 59.5985 15.21035391 13552 SUCHAI 1 1 42788U 17036Z 17264.41586041 .00001535 00000-0 72396-4 0 9990 2 42788 97.4406 323.1087 0010740 301.9546 58.0644 15.20950447 13722 SKCUBE 1 42789U 17036AA 17264.41364477 .00001601 00000-0 75330-4 0 9993 2 42789 097.4407 323.1105 0010601 302.1805 057.8401 15.20975466013649 VZLUSAT 1 1 42790U 17036AB 17264.27710710 .00001699 00000-0 79502-4 0 9996 2 42790 097.4404 322.9846 0010302 303.0543 056.9703 15.21087002013628 VENTA 1 1 42791U 17036AC 17264.47329717 .00001521 00000-0 71521-4 0 9999 2 42791 097.4406 323.1829 0010208 302.9582 057.0671 15.21076105013641 Robusta 1B 1 42792U 17036AD 17264.40630447 .00001461 00000-0 68774-4 0 9997 2 42792 097.4403 323.1171 0010150 303.6724 056.3543 15.21106531013659 D-SAT 1 42794U 17036AF 17264.65493974 .00001027 00000-0 49051-4 0 9993 2 42794 97.4400 323.3924 0008422 301.4640 58.5772 15.21276201 13681 BIRD-J 1 42820U 98067MU 17264.40835604 .00012140 00000-0 17083-3 0 9996 2 42820 051.6383 277.7335 0001618 256.4108 103.6704 15.57096360011858 BIRD-G 1 42821U 98067MV 17264.41114067 .00011624 00000-0 16443-3 0 9996 2 42821 051.6382 277.7518 0001722 259.0038 101.0761 15.57001977011831 BIRD-M 1 42822U 98067MW 17264.41192138 .00012121 00000-0 17114-3 0 9991 2 42822 51.6382 277.7576 0001754 264.3731 95.7061 15.57006493 11818 BIRD-B 1 42823U 98067MX 17264.54212791 .00013799 00000-0 19391-3 0 9995 2 42823 051.6383 277.1292 0005335 275.1183 084.9200 15.56992120011858 BIRD-N 1 42824U 98067MY 17264.54500406 .00013638 00000-0 19223-3 0 9995 2 42824 051.6383 277.1484 0005197 276.7678 083.2722 15.56921231011850 TechnoSat 1 42829U 17042E 17264.60933685 .00000269 00000-0 32834-4 0 9990 2 42829 097.6081 171.8146 0014858 018.6697 341.5064 14.90669589010314 Mayak 1 42830U 17042F 17264.80794306 .00000919 00000-0 98748-4 0 9997 2 42830 97.6087 172.0177 0015255 15.6197 344.5489 14.90787483 10344 OBJECT MZ 1 42910U 98067MZ 17264.65082812 .00011764 00000-0 17211-3 0 9992 2 42910 51.6371 277.0983 0006856 297.7604 62.2692 15.56057050 5452 OBJECT NA 1 42911U 98067NA 17264.65140518 .00013161 00000-0 19150-3 0 9998 2 42911 51.6388 277.1085 0006264 293.6716 66.3617 15.56086256 5437 OBJECT NB 1 42912U 98067NB 17264.84760603 .00011821 00000-0 17408-3 0 9998 2 42912 51.6355 276.1547 0006073 309.0579 50.9872 15.55875068 5484 OBJECT NC 1 42913U 98067NC 17264.64869071 .00019048 00000-0 26999-3 0 9990 2 42913 51.6373 277.0832 0005526 324.7676 35.2950 15.56476113 5411 OBJECT ND 1 42914U 98067ND 17264.65637778 .00012120 00000-0 17873-3 0 9994 2 42914 51.6382 277.1393 0005765 301.3188 58.7238 15.55811143 5446 /EX